1513641600.41,49265,6.63,73116.3,-16.67,-48.35,-48.49,0,*61
1513641601.7,49266,6.56,73114.8,-16.69,-48.13,-48.27,0,*60
1513641602.97,49267,6.63,73114.3,-16.67,-47.93,-48.13,0,*6F
1513641604.26,49268,6.63,73116.0,-16.69,-47.93,-48.27,0,*69
1513641605.54,49269,6.63,73114.0,-16.69,-47.93,-47.93,0,*68
1513641606.81,49270,6.63,73112.3,-16.69,-47.85,-47.93,0,*67
1513641608.07,49271,6.63,73112.5,-16.69,-47.85,-47.93,0,*66
1513641609.34,49272,6.56,73108.0,-16.69,-47.85,-47.93,0,*65
1513641610.58,49273,6.56,73108.8,-16.67,-47.85,-47.93,0,*6A
1513641611.87,49274,6.63,73114.3,-16.69,-47.93,-48.13,0,*63
1513641613.12,49275,6.63,73114.8,-16.69,-48.07,-48.07,0,*65
1513641614.4,49276,6.63,73114.0,-16.69,-47.93,-47.93,0,*66
1513641615.7,49277,6.63,73112.3,-16.69,-47.93,-48.13,0,*60
1513641616.98,49278,6.63,73116.5,-16.69,-47.93,-47.93,0,*68
1513641618.25,49279,6.56,73112.8,-16.69,-47.93,-48.07,0,*6B
1513641619.54,49280,6.56,73114.8,-16.69,-47.93,-47.93,0,*6F
1513641620.78,49281,6.63,73116.3,-16.69,-47.85,-47.85,0,*6E
1513641622.07,49282,6.63,73114.8,-16.69,-47.93,-47.93,0,*6D
1513641623.32,49283,6.56,73112.0,-16.69,-48.07,-48.07,0,*6C
1513641624.59,49284,6.63,73118.0,-16.69,-48.07,-48.27,0,*69
1513641625.86,49285,6.63,73112.3,-16.69,-48.07,-48.27,0,*68
1513641627.13,49286,6.56,73114.8,-16.73,-47.99,-48.35,0,*6B
1513641628.42,49287,6.63,73114.0,-16.73,-48.13,-48.35,0,*67
1513641629.69,49288,6.56,73112.3,-16.73,-48.13,-48.21,0,*6D
1513641630.93,49289,6.63,73116.3,-16.73,-47.99,-48.41,0,*67
1513641632.21,49290,6.63,73114.0,-16.73,-48.35,-48.35,0,*65
1513641633.46,49291,6.63,73112.0,-16.73,-48.21,-48.41,0,*62
1513641634.68,49292,6.63,73116.8,-16.75,-48.21,-48.21,0,*61
1513641635.93,49293,6.63,73118.3,-16.75,-48.13,-48.21,0,*61
1513641637.19,49294,6.63,73118.3,-16.75,-48.35,-48.35,0,*67
1513641638.43,49295,6.63,73114.8,-16.75,-48.21,-48.35,0,*63
1513641639.68,49296,6.63,73114.8,-16.75,-48.21,-48.35,0,*60
1513641640.91,49297,6.56,73112.3,-16.75,-48.35,-48.41,0,*67
1513641642.13,49298,6.63,73116.0,-16.75,-48.55,-48.55,0,*6B
1513641643.38,49299,6.56,73114.3,-16.75,-48.35,-48.55,0,*6C
1513641644.59,49300,6.63,73112.3,-16.75,-48.21,-48.41,0,*6D
1513641645.87,49301,6.56,73114.5,-16.73,-48.13,-48.21,0,*6D
1513641647.11,49302,6.56,73112.5,-16.77,-48.07,-48.41,0,*69
1513641648.36,49303,6.56,73112.8,-16.77,-48.41,-48.63,0,*6A
1513641649.62,49304,6.63,73116.3,-16.77,-48.27,-48.41,0,*6D
1513641650.89,49305,6.63,73116.3,-16.77,-48.27,-48.41,0,*6C
1513641652.16,49306,6.63,73114.8,-16.77,-48.21,-48.27,0,*69
1513641653.43,49307,6.56,73114.3,-16.77,-48.07,-48.27,0,*6C
1513641654.7,49308,6.63,73112.8,-16.77,-48.21,-48.27,0,*67
1513641655.93,49309,6.56,73112.3,-16.79,-48.07,-48.21,0,*6A
1513641657.18,49310,6.63,73114.8,-16.77,-48.07,-48.07,0,*68
1513641658.43,49311,6.63,73112.8,-16.77,-48.07,-47.99,0,*61
1513641659.65,49312,6.63,73112.5,-16.79,-47.99,-48.07,0,*6C
1513641660.9,49313,6.63,73114.5,-16.77,-48.07,-48.21,0,*6F
1513641662.17,49314,6.63,73112.8,-16.77,-48.21,-48.27,0,*6A
1513641663.41,49315,6.56,73114.0,-16.77,-48.41,-48.41,0,*6D
1513641664.66,49316,6.56,73112.8,-16.77,-48.21,-48.41,0,*68
1513641665.9,49317,6.63,73116.8,-16.77,-48.21,-48.41,0,*69
1513641667.15,49318,6.63,73116.3,-16.77,-48.21,-48.41,0,*66
1513641668.42,49319,6.63,73112.3,-16.77,-48.07,-48.27,0,*63
1513641669.66,49320,6.63,73116.0,-16.77,-47.99,-47.99,0,*6B
1513641670.91,49321,6.56,73112.3,-16.77,-47.99,-48.21,0,*66
1513641672.16,49322,6.56,73114.3,-16.77,-48.07,-48.07,0,*69
1513641673.41,49323,6.63,73116.8,-16.77,-48.07,-48.07,0,*68
1513641674.64,49324,6.63,73118.5,-16.79,-47.99,-48.07,0,*69
1513641675.89,49325,6.56,73114.5,-16.77,-47.99,-48.07,0,*66
1513641677.14,49326,6.56,73114.3,-16.77,-48.07,-48.21,0,*69
1513641678.38,49327,6.56,73114.5,-16.77,-47.99,-48.07,0,*64
1513641679.61,49328,6.63,73116.0,-16.79,-47.99,-48.07,0,*65
1513641680.86,49329,6.63,73116.3,-16.77,-48.07,-48.07,0,*62
1513641682.09,49330,6.63,73116.0,-16.79,-48.07,-48.07,0,*64
1513641683.3,49331,6.63,73116.0,-16.79,-47.99,-47.99,0,*65
1513641684.55,49332,6.56,73114.0,-16.77,-47.99,-48.21,0,*64
1513641685.8,49333,6.56,73114.3,-16.77,-48.21,-48.21,0,*69
1513641687.05,49334,6.63,73118.0,-16.77,-48.07,-48.21,0,*6A
1513641688.27,49335,6.63,73116.0,-16.79,-48.07,-48.21,0,*65
1513641689.54,49336,6.56,73114.5,-16.77,-48.21,-48.27,0,*6A
1513641690.76,49337,6.63,73118.3,-16.79,-47.99,-48.07,0,*6B
1513641691.99,49338,6.56,73108.3,-16.79,-48.07,-48.21,0,*68
1513641693.21,49339,6.56,73114.5,-16.79,-48.21,-48.21,0,*6D
1513641694.45,49340,6.63,73118.0,-16.77,-48.41,-48.41,0,*6D
1513641695.66,49341,6.56,73114.0,-16.79,-48.41,-48.49,0,*6A
1513641696.91,49342,6.63,73116.5,-16.79,-48.21,-48.27,0,*67
1513641698.16,49343,6.63,73114.8,-16.79,-48.21,-48.27,0,*66
1513641699.42,49344,6.63,73122.0,-16.81,-48.27,-48.49,0,*68
1513641700.67,49345,6.56,73114.5,-16.81,-48.55,-48.55,0,*61
1513641701.91,49346,6.56,73116.3,-16.79,-48.21,-48.27,0,*63
1513641703.16,49347,6.56,73116.3,-16.79,-48.07,-48.27,0,*66
1513641704.45,49348,6.56,73118.0,-16.81,-48.35,-48.35,0,*6C
1513641705.72,49349,6.63,73120.3,-16.81,-47.93,-48.07,0,*6F
1513641706.97,49350,6.63,73118.5,-16.81,-47.85,-47.85,0,*65
1513641708.26,49351,6.56,73114.0,-16.81,-47.93,-47.93,0,*64
1513641709.49,49352,6.63,73116.8,-16.79,-47.85,-48.07,0,*65
1513641710.71,49353,6.56,73116.8,-16.79,-47.85,-47.85,0,*61
1513641711.95,49354,6.63,73116.5,-16.79,-47.79,-47.85,0,*65
1513641713.2,49355,6.63,73118.8,-16.79,-47.85,-47.79,0,*64
1513641714.44,49356,6.56,73114.5,-16.79,-47.79,-47.65,0,*69
1513641715.66,49357,6.56,73114.8,-16.79,-47.99,-47.99,0,*65
1513641716.87,49358,6.56,73116.5,-16.79,-47.99,-47.99,0,*6A
1513641718.1,49359,6.56,73116.0,-16.79,-47.85,-47.85,0,*6B
1513641719.37,49360,6.56,73114.3,-16.77,-47.85,-47.79,0,*6C
1513641720.58,49361,6.56,73112.5,-16.79,-47.99,-47.99,0,*60
1513641721.81,49362,6.56,73110.5,-16.79,-48.07,-48.07,0,*63
1513641723.04,49363,6.56,73110.5,-16.79,-48.07,-48.07,0,*62
1513641724.29,49364,6.56,73112.8,-16.77,-47.99,-47.85,0,*66
1513641725.51,49365,6.56,73114.0,-16.79,-47.99,-48.07,0,*6C
1513641726.73,49366,6.56,73114.5,-16.79,-47.99,-48.07,0,*6F
1513641727.95,49367,6.63,73118.8,-16.79,-47.99,-48.21,0,*6A
1513641729.18,49368,6.56,73114.0,-16.79,-48.07,-48.07,0,*69
1513641730.42,49369,6.63,73116.8,-16.79,-48.21,-48.27,0,*6E
1513641731.67,49370,6.63,73118.8,-16.79,-48.07,-48.27,0,*62
1513641732.92,49371,6.63,73114.8,-16.77,-48.07,-48.07,0,*6F
1513641734.15,49372,6.63,73114.8,-16.79,-48.07,-48.07,0,*62
1513641735.37,49373,6.63,73116.5,-16.79,-47.85,-47.85,0,*63
1513641736.59,49374,6.63,73116.0,-16.79,-47.99,-47.99,0,*64
1513641737.81,49375,6.56,73114.8,-16.79,-47.99,-48.07,0,*6D
1513641739.09,49376,6.63,73118.3,-16.77,-47.85,-47.79,0,*6B
1513641740.31,49377,6.63,73118.3,-16.79,-48.07,-48.07,0,*67
1513641741.57,49378,6.63,73114.3,-16.77,-48.07,-48.07,0,*66
1513641742.79,49379,6.56,73114.5,-16.79,-48.21,-48.21,0,*69
1513641744.01,49380,6.63,73116.8,-16.79,-48.07,-48.07,0,*6F
1513641745.24,49381,6.63,73116.5,-16.79,-47.99,-48.07,0,*66
1513641746.46,49382,6.63,73118.5,-16.79,-48.07,-48.07,0,*6D
1513641747.72,49383,6.56,73112.8,-16.77,-48.07,-48.07,0,*62
1513641748.94,49384,6.56,73114.8,-16.79,-48.07,-48.07,0,*6B
1513641750.17,49385,6.56,73112.5,-16.79,-48.07,-48.21,0,*6E
1513641751.38,49386,6.56,73114.8,-16.79,-47.99,-47.99,0,*69
1513641752.63,49387,6.63,73118.0,-16.77,-47.99,-47.85,0,*6B
1513641753.88,49388,6.63,73116.8,-16.77,-47.99,-47.85,0,*64
1513641755.1,49389,6.56,73112.8,-16.79,-48.07,-47.99,0,*6E
1513641756.32,49390,6.56,73116.3,-16.79,-48.07,-47.99,0,*66
1513641757.54,49391,6.56,73114.8,-16.79,-48.07,-48.07,0,*6F
1513641758.79,49392,6.56,73114.8,-16.77,-48.07,-47.99,0,*6A
1513641760.01,49393,6.56,73114.0,-16.79,-48.21,-48.21,0,*6D
1513641761.26,49394,6.56,73114.8,-16.77,-48.07,-48.21,0,*60
1513641762.49,49395,6.56,73118.5,-16.79,-48.07,-48.07,0,*6B
1513641763.71,49396,6.63,73116.3,-16.79,-48.07,-48.07,0,*68
1513641765.01,49397,6.56,73116.5,-16.81,-48.27,-48.13,0,*69
1513641766.26,49398,6.56,73114.8,-16.79,-48.07,-48.27,0,*64
1513641767.48,49399,6.56,73116.3,-16.79,-48.21,-48.21,0,*67
1513641768.77,49400,6.56,73112.3,-16.81,-48.13,-48.35,0,*63
1513641770.05,49401,6.56,73114.0,-16.81,-48.13,-48.07,0,*63
1513641771.34,49402,6.56,73112.8,-16.81,-48.27,-48.27,0,*65
1513641772.64,49403,6.56,73116.5,-16.81,-48.13,-48.27,0,*63
1513641773.93,49404,6.56,73114.0,-16.81,-48.13,-47.93,0,*64
1513641775.21,49405,6.63,73116.8,-16.81,-48.07,-48.13,0,*67
1513641776.51,49406,6.56,73118.0,-16.81,-48.13,-48.27,0,*66
1513641777.81,49407,6.56,73114.5,-16.81,-48.13,-48.13,0,*60
1513641779.07,49408,6.63,73118.0,-16.81,-48.27,-48.49,0,*67
1513641780.37,49409,6.63,73118.8,-16.81,-48.13,-48.27,0,*69
1513641781.62,49410,6.63,73118.3,-16.81,-48.07,-48.07,0,*66
1513641782.89,49411,6.56,73118.8,-16.81,-48.07,-47.93,0,*65
1513641784.14,49412,6.56,73116.5,-16.81,-47.85,-47.85,0,*64
1513641785.37,49413,6.63,73116.3,-16.83,-48.07,-48.07,0,*67
1513641786.65,49414,6.56,73116.5,-16.81,-48.07,-48.13,0,*67
1513641787.94,49415,6.56,73118.0,-16.81,-47.93,-47.93,0,*63
1513641789.23,49416,6.56,73116.5,-16.81,-47.93,-47.93,0,*60
1513641790.5,49417,6.56,73112.8,-16.81,-47.93,-47.85,0,*66
1513641791.75,49418,6.56,73118.0,-16.81,-48.07,-48.07,0,*6E
1513641793.03,49419,6.56,73114.8,-16.81,-48.07,-47.93,0,*6D
1513641794.24,49420,6.56,73114.8,-16.79,-47.99,-47.99,0,*62
1513641795.46,49421,6.56,73116.3,-16.79,-47.99,-48.07,0,*6B
1513641796.71,49422,6.56,73118.3,-16.77,-47.99,-47.99,0,*6E
1513641797.92,49423,6.56,73118.3,-16.79,-47.99,-47.99,0,*61
1513641799.17,49424,6.56,73116.5,-16.79,-47.99,-47.79,0,*68
1513641800.39,49425,6.56,73118.8,-16.79,-47.85,-47.85,0,*67
1513641801.66,49426,6.56,73114.0,-16.81,-47.93,-47.85,0,*64
1513641802.91,49427,6.56,73116.3,-16.79,-47.85,-47.79,0,*66
1513641804.12,49428,6.56,73118.0,-16.79,-47.99,-47.99,0,*6A
1513641805.4,49429,6.56,73118.0,-16.79,-47.79,-47.79,0,*6B
1513641806.67,49430,6.56,73118.0,-16.79,-47.79,-47.79,0,*63
1513641807.88,49431,6.63,73120.5,-16.79,-47.99,-47.99,0,*62
1513641809.1,49432,6.56,73116.0,-16.79,-47.85,-47.85,0,*61
1513641810.33,49433,6.56,73114.3,-16.79,-47.85,-47.85,0,*60
1513641811.54,49434,6.56,73118.0,-16.79,-47.99,-47.99,0,*67
1513641812.82,49435,6.56,73114.3,-16.77,-47.85,-47.79,0,*6B
1513641814.06,49436,6.56,73122.0,-16.79,-47.99,-47.79,0,*6B
1513641815.28,49437,6.56,73118.0,-16.79,-47.99,-47.85,0,*69
1513641816.5,49438,6.56,73118.3,-16.79,-47.99,-47.99,0,*6B
1513641817.71,49439,6.56,73118.8,-16.79,-47.99,-47.99,0,*6A
1513641818.94,49440,6.56,73118.3,-16.79,-47.85,-47.85,0,*64
1513641820.21,49441,6.56,73122.3,-16.79,-47.79,-47.79,0,*65
1513641821.43,49442,6.63,73122.5,-16.79,-47.99,-47.85,0,*6B
1513641822.68,49443,6.56,73118.3,-16.77,-47.85,-47.85,0,*69
1513641823.89,49444,6.63,73120.5,-16.79,-47.85,-47.99,0,*6D
1513641825.11,49445,6.56,73122.0,-16.79,-47.85,-47.99,0,*6C
1513641826.36,49446,6.56,73118.3,-16.79,-47.79,-47.85,0,*61
1513641827.57,49447,6.56,73120.3,-16.79,-47.99,-47.99,0,*63
1513641828.82,49448,6.56,73118.5,-16.77,-47.99,-47.85,0,*6F
1513641830.07,49449,6.56,73118.8,-16.77,-47.85,-47.85,0,*63
1513641831.31,49450,6.63,73120.3,-16.77,-47.99,-47.99,0,*6B
1513641832.58,49451,6.56,73118.5,-16.75,-47.79,-47.79,0,*68
1513641833.85,49452,6.56,73118.5,-16.75,-47.79,-47.79,0,*6B
1513641835.07,49453,6.56,73120.8,-16.79,-47.85,-47.99,0,*6B
1513641836.32,49454,6.56,73116.5,-16.77,-47.85,-47.85,0,*6F
1513641837.59,49455,6.56,73118.0,-16.77,-47.85,-47.79,0,*6D
1513641838.86,49456,6.56,73118.5,-16.79,-47.79,-47.79,0,*63
1513641840.14,49457,6.56,73118.3,-16.77,-47.85,-47.79,0,*6F
1513641841.36,49458,6.56,73118.3,-16.75,-47.99,-47.85,0,*6C
1513641842.58,49459,6.56,73116.0,-16.79,-47.85,-47.85,0,*6C
1513641843.85,49460,6.56,73118.3,-16.75,-47.79,-47.79,0,*6A
1513641845.11,49461,6.56,73122.3,-16.75,-47.93,-47.93,0,*6B
1513641846.38,49462,6.56,73116.0,-16.75,-47.79,-47.79,0,*68
1513641847.65,49463,6.56,73120.0,-16.75,-47.93,-47.93,0,*69
1513641848.89,49464,6.56,73118.5,-16.77,-47.85,-47.99,0,*61
1513641850.14,49465,6.56,73118.8,-16.77,-47.99,-47.85,0,*60
1513641851.4,49466,6.56,73120.5,-16.75,-47.93,-47.93,0,*6C
1513641852.67,49467,6.63,73120.3,-16.75,-48.13,-47.93,0,*6A
1513641853.88,49468,6.56,73120.8,-16.75,-47.99,-47.99,0,*62
1513641855.13,49469,6.56,73120.0,-16.75,-47.99,-47.79,0,*6D
1513641856.37,49470,6.56,73122.0,-16.75,-47.99,-47.93,0,*61
1513641857.64,49471,6.56,73122.3,-16.75,-48.13,-48.13,0,*6A
1513641858.89,49472,6.56,73120.0,-16.77,-48.07,-48.07,0,*6B
1513641860.16,49473,6.56,73120.3,-16.75,-47.93,-47.71,0,*64
1513641861.4,49474,6.56,73122.8,-16.77,-47.99,-47.85,0,*60
1513641862.68,49475,6.56,73120.0,-16.77,-47.85,-47.79,0,*6F
1513641863.92,49476,6.56,73120.0,-16.75,-47.79,-47.57,0,*61
1513641865.18,49477,6.56,73120.0,-16.75,-47.79,-47.71,0,*64
1513641866.45,49478,6.56,73120.5,-16.75,-47.93,-47.79,0,*67
1513641867.7,49479,6.56,73118.3,-16.79,-47.99,-47.79,0,*60
1513641868.96,49480,6.56,73122.5,-16.75,-47.79,-47.71,0,*6C
1513641870.23,49481,6.56,73122.8,-16.75,-47.93,-47.79,0,*61
1513641871.53,49482,6.56,73116.5,-16.73,-47.79,-47.79,0,*60
1513641872.8,49483,6.56,73118.8,-16.75,-47.79,-47.79,0,*67
1513641874.07,49484,6.56,73116.0,-16.75,-47.79,-47.71,0,*68
1513641875.35,49485,6.56,73118.3,-16.73,-47.93,-47.71,0,*6B
1513641876.59,49486,6.56,73118.8,-16.75,-47.71,-47.57,0,*66
1513641877.88,49487,6.56,73120.0,-16.73,-47.79,-47.71,0,*6D
1513641879.16,49488,6.56,73120.3,-16.73,-47.93,-47.93,0,*6A
1513641880.4,49489,6.56,73122.5,-16.75,-47.79,-47.57,0,*61
1513641881.69,49490,6.56,73122.0,-16.73,-47.79,-47.71,0,*6B
1513641882.96,49491,6.56,73122.3,-16.75,-47.93,-47.79,0,*60
1513641884.25,49492,6.56,73116.3,-16.73,-47.93,-47.79,0,*65
1513641885.55,49493,6.56,73116.3,-16.73,-47.93,-47.79,0,*64
1513641886.81,49494,6.56,73116.0,-16.75,-47.93,-47.93,0,*61
1513641888.1,49495,6.56,73120.3,-16.73,-47.93,-47.93,0,*66
1513641889.38,49496,6.56,73118.5,-16.73,-47.93,-47.93,0,*65
1513641890.64,49497,6.56,73116.3,-16.75,-47.93,-47.93,0,*62
1513641891.94,49498,6.56,73118.0,-16.73,-48.13,-48.13,0,*6B
1513641893.18,49499,6.56,73118.8,-16.73,-47.99,-47.99,0,*6A
1513641894.44,49500,6.56,73118.3,-16.73,-47.99,-47.93,0,*61
1513641895.68,49501,6.56,73116.5,-16.73,-47.99,-47.99,0,*6A
1513641896.92,49502,6.56,73114.3,-16.73,-47.99,-47.99,0,*69
1513641898.22,49503,6.56,73118.0,-16.73,-48.13,-48.13,0,*68
1513641899.46,49504,6.56,73112.8,-16.73,-47.99,-47.99,0,*6F
1513641900.69,49505,6.56,73116.8,-16.73,-47.99,-47.99,0,*6E
1513641901.96,49506,6.56,73118.3,-16.73,-47.93,-47.99,0,*67
1513641903.17,49507,6.56,73116.0,-16.75,-47.99,-47.99,0,*6A
1513641904.39,49508,6.56,73118.0,-16.75,-47.99,-47.99,0,*65
1513641905.65,49509,6.56,73118.5,-16.73,-47.99,-47.93,0,*68
1513641906.91,49510,6.56,73114.3,-16.73,-47.99,-47.93,0,*60
1513641908.18,49511,6.56,73116.5,-16.73,-47.99,-47.79,0,*65
1513641909.47,49512,6.56,73116.5,-16.73,-47.93,-47.79,0,*6C
1513641910.76,49513,6.56,73118.3,-16.73,-47.93,-47.93,0,*69
1513641912.05,49514,6.56,73118.3,-16.73,-47.93,-47.79,0,*6A
1513641913.32,49515,6.56,73116.8,-16.73,-48.13,-47.99,0,*62
1513641914.53,49516,6.56,73114.8,-16.75,-47.99,-47.99,0,*6A
1513641915.8,49517,6.56,73118.0,-16.73,-47.99,-47.79,0,*63
1513641917.04,49518,6.56,73116.5,-16.73,-47.99,-47.99,0,*62
1513641918.34,49519,6.56,73114.3,-16.73,-48.13,-48.13,0,*63
1513641919.61,49520,6.56,73116.5,-16.69,-48.13,-48.07,0,*67
1513641920.9,49521,6.56,73114.3,-16.69,-47.93,-47.93,0,*63
1513641922.15,49522,6.56,73114.0,-16.69,-48.07,-48.07,0,*60
1513641923.39,49523,6.56,73114.8,-16.73,-47.99,-47.99,0,*6A
1513641924.66,49524,6.56,73112.8,-16.73,-47.99,-48.13,0,*60
1513641925.92,49525,6.56,73116.3,-16.73,-47.99,-47.93,0,*66
1513641927.21,49526,6.56,73116.3,-16.73,-48.13,-48.13,0,*6F
1513641928.46,49527,6.56,73112.5,-16.73,-48.21,-48.21,0,*6E
1513641929.7,49528,6.56,73112.8,-16.73,-48.21,-48.21,0,*61
1513641930.97,49529,6.56,73114.0,-16.73,-47.99,-48.13,0,*6D
1513641932.24,49530,6.56,73114.0,-16.73,-48.13,-47.99,0,*65
1513641933.51,49531,6.56,73118.5,-16.73,-47.99,-47.79,0,*67
1513641934.77,49532,6.56,73116.0,-16.73,-47.99,-47.93,0,*60
1513641936.01,49533,6.56,73114.0,-16.73,-47.99,-47.99,0,*6B
1513641937.25,49534,6.56,73112.0,-16.73,-47.99,-47.99,0,*6C
1513641938.54,49535,6.56,73114.8,-16.73,-47.79,-47.79,0,*6D
1513641939.81,49536,6.56,73110.3,-16.73,-48.13,-47.99,0,*63
1513641941.1,49537,6.56,73118.3,-16.73,-48.13,-48.13,0,*6F
1513641942.34,49538,6.56,73116.0,-16.73,-47.99,-47.99,0,*60
1513641943.64,49539,6.56,73116.3,-16.69,-48.13,-48.35,0,*6E
1513641944.92,49540,6.56,73114.8,-16.69,-48.35,-48.27,0,*67
1513641946.17,49541,6.56,73112.5,-16.73,-48.21,-48.21,0,*6E
1513641947.43,49542,6.56,73112.3,-16.73,-48.21,-48.35,0,*68
1513641948.73,49543,6.56,73116.5,-16.73,-48.13,-48.35,0,*68
1513641949.99,49544,6.56,73116.8,-16.73,-48.21,-48.35,0,*6E
1513641951.27,49545,6.56,73112.8,-16.73,-48.21,-48.13,0,*6B
1513641952.55,49546,6.56,73118.0,-16.73,-48.35,-48.35,0,*69
1513641953.84,49547,6.56,73118.5,-16.73,-48.13,-48.35,0,*6C
1513641955.09,49548,6.56,73114.5,-16.73,-48.21,-48.21,0,*67
1513641956.31,49549,6.56,73114.8,-16.75,-48.21,-47.99,0,*6C
1513641957.6,49550,6.56,73114.3,-16.73,-48.13,-48.13,0,*6E
1513641958.84,49551,6.56,73112.5,-16.73,-48.21,-47.99,0,*63
1513641960.1,49552,6.56,73112.0,-16.73,-48.35,-48.21,0,*69
1513641961.35,49553,6.56,73116.5,-16.75,-48.21,-48.35,0,*6E
1513641962.59,49554,6.56,73114.3,-16.73,-48.21,-48.21,0,*6A
1513641963.83,49555,6.56,73112.5,-16.75,-48.35,-48.21,0,*68
1513641965.07,49556,6.56,73114.3,-16.75,-48.35,-48.21,0,*6B
1513641966.35,49557,6.56,73112.5,-16.73,-48.35,-48.35,0,*69
1513641967.57,49558,6.56,73112.3,-16.75,-48.55,-48.41,0,*65
1513641968.78,49559,6.56,73114.3,-16.75,-48.41,-48.41,0,*61
1513641970.0,49560,6.56,73110.8,-16.75,-48.41,-48.41,0,*6B
1513641971.27,49561,6.56,73114.0,-16.77,-48.63,-48.69,0,*62
1513641972.49,49562,6.56,73118.3,-16.75,-48.55,-48.55,0,*69
1513641973.72,49563,6.56,73114.5,-16.75,-48.41,-48.55,0,*6D
1513641974.94,49564,6.56,73116.3,-16.75,-48.55,-48.55,0,*6F
1513641976.16,49565,6.56,73114.5,-16.75,-48.55,-48.55,0,*6E
1513641977.38,49566,6.56,73116.8,-16.75,-48.41,-48.41,0,*6D
1513641978.62,49567,6.56,73112.3,-16.77,-48.49,-48.63,0,*66
1513641979.86,49568,6.56,73112.8,-16.77,-48.41,-48.49,0,*69
1513641981.1,49569,6.56,73114.5,-16.77,-48.41,-48.49,0,*68
1513641982.35,49570,6.56,73112.0,-16.77,-48.49,-48.63,0,*60
1513641983.59,49571,6.56,73112.8,-16.77,-48.49,-48.49,0,*69
1513641984.85,49572,6.56,73112.0,-16.77,-48.27,-48.41,0,*6A
1513641986.11,49573,6.56,73114.5,-16.77,-48.27,-48.41,0,*6B
1513641987.33,49574,6.56,73112.5,-16.79,-48.49,-48.63,0,*6A
1513641988.58,49575,6.56,73112.0,-16.77,-48.41,-48.41,0,*6D
1513641989.79,49576,6.56,73114.5,-16.79,-48.41,-48.63,0,*60
1513641991.01,49577,6.56,73116.0,-16.79,-48.41,-48.49,0,*69
1513641992.25,49578,6.56,73114.0,-16.77,-48.49,-48.41,0,*68
1513641993.46,49579,6.56,73114.8,-16.79,-48.49,-48.41,0,*67
1513641994.68,49580,6.56,73116.3,-16.79,-48.41,-48.63,0,*69
1513641995.9,49581,6.56,73114.8,-16.79,-48.41,-48.41,0,*68
1513641997.14,49582,6.56,73116.8,-16.77,-48.41,-48.49,0,*6D
1513641998.38,49583,6.56,73112.0,-16.81,-48.49,-48.49,0,*6D
1513641999.65,49584,6.56,73116.0,-16.81,-48.55,-48.69,0,*65
1513642000.86,49585,6.56,73112.8,-16.79,-48.49,-48.49,0,*6C
1513642002.07,49586,6.56,73112.8,-16.79,-48.49,-48.49,0,*6F
1513642003.32,49587,6.56,73118.5,-16.81,-48.55,-48.55,0,*69
1513642004.62,49588,6.56,73110.8,-16.81,-48.77,-48.69,0,*69
1513642005.92,49589,6.56,73114.8,-16.81,-48.77,-48.69,0,*68
1513642007.22,49590,6.56,73118.8,-16.81,-48.77,-48.69,0,*60
1513642008.5,49591,6.56,73112.0,-16.83,-48.69,-48.77,0,*63
1513642009.78,49592,6.56,73112.8,-16.83,-48.69,-48.69,0,*6F
1513642011.08,49593,6.56,73116.5,-16.81,-48.77,-48.69,0,*63
1513642012.33,49594,6.56,73112.0,-16.81,-48.55,-48.55,0,*6B
1513642013.54,49595,6.56,73116.5,-16.83,-48.55,-48.49,0,*65
1513642014.81,49596,6.56,73118.8,-16.83,-48.35,-48.35,0,*6B
1513642016.05,49597,6.56,73116.5,-16.83,-48.35,-48.49,0,*61
1513642017.31,49598,6.56,73116.3,-16.83,-48.69,-48.55,0,*6A
1513642018.54,49599,6.56,73116.5,-16.83,-48.49,-48.55,0,*69
1513642019.81,49600,6.56,73116.3,-16.83,-48.35,-48.35,0,*67
1513642021.07,49601,6.56,73116.5,-16.83,-48.35,-48.35,0,*66
1513642022.34,49602,6.56,73122.8,-16.83,-48.27,-48.35,0,*66
1513642023.56,49603,6.56,73122.3,-16.85,-48.55,-48.41,0,*67
1513642024.8,49604,6.56,73118.0,-16.85,-48.35,-48.55,0,*63
1513642026.03,49605,6.56,73114.5,-16.85,-48.35,-48.41,0,*67
1513642027.25,49606,6.56,73118.3,-16.85,-48.41,-48.21,0,*61
1513642028.48,49607,6.56,73118.3,-16.85,-48.35,-48.21,0,*63
1513642029.74,49608,6.56,73118.5,-16.85,-48.35,-48.35,0,*69
1513642031.0,49609,6.56,73116.3,-16.85,-48.35,-48.35,0,*68
1513642032.24,49610,6.56,73118.0,-16.85,-48.21,-48.35,0,*65
1513642033.48,49611,6.56,73118.0,-16.85,-48.35,-48.41,0,*62
1513642034.74,49612,6.56,73114.5,-16.85,-48.35,-48.35,0,*62
1513642035.96,49613,6.56,73118.0,-16.85,-48.21,-48.21,0,*63
1513642037.2,49614,6.56,73118.5,-16.85,-48.21,-48.35,0,*61
1513642038.44,49615,6.56,73120.3,-16.85,-48.21,-48.13,0,*64
1513642039.71,49616,6.56,73116.3,-16.85,-48.13,-48.13,0,*66
1513642040.97,49617,6.56,73114.5,-16.85,-47.93,-47.93,0,*67
1513642042.25,49618,6.56,73118.0,-16.85,-48.13,-48.13,0,*68
1513642043.52,49619,6.56,73118.0,-16.85,-48.13,-48.13,0,*69
1513642044.73,49620,6.56,73116.8,-16.85,-47.99,-47.99,0,*63
1513642046.0,49621,6.56,73118.3,-16.85,-48.13,-48.13,0,*62
1513642047.24,49622,6.56,73116.0,-16.85,-48.13,-47.99,0,*6C
1513642048.5,49623,6.56,73120.0,-16.85,-48.35,-48.35,0,*60
1513642049.78,49624,6.56,73116.3,-16.83,-48.13,-48.13,0,*61
1513642051.06,49625,6.56,73118.5,-16.83,-48.13,-48.13,0,*60
1513642052.34,49626,6.56,73118.5,-16.83,-48.13,-48.13,0,*63
1513642053.57,49627,6.56,73120.8,-16.83,-48.07,-48.07,0,*62
1513642054.84,49628,6.56,73118.3,-16.83,-48.27,-48.27,0,*6D
1513642056.12,49629,6.56,73118.3,-16.83,-48.13,-48.13,0,*6C
1513642057.36,49630,6.56,73116.8,-16.83,-48.07,-48.07,0,*64
1513642058.61,49631,6.56,73118.8,-16.83,-48.07,-47.93,0,*67
1513642059.84,49632,6.56,73116.8,-16.85,-47.99,-47.93,0,*6A
1513642061.09,49633,6.56,73118.5,-16.83,-48.07,-47.93,0,*65
1513642062.36,49634,6.56,73120.3,-16.83,-47.93,-47.93,0,*60
1513642063.63,49635,6.56,73120.0,-16.85,-48.13,-47.93,0,*60
1513642064.9,49636,6.56,73122.5,-16.85,-48.13,-48.13,0,*64
1513642066.13,49637,6.56,73122.3,-16.83,-48.07,-48.07,0,*63
1513642067.4,49638,6.56,73124.8,-16.81,-48.07,-47.93,0,*6C
1513642068.65,49639,6.56,73120.8,-16.83,-48.07,-47.93,0,*6F
1513642069.9,49640,6.56,73122.5,-16.83,-47.85,-47.71,0,*68
1513642071.16,49641,6.56,73120.8,-16.81,-47.71,-47.65,0,*65
1513642072.39,49642,6.56,73126.3,-16.83,-47.71,-47.65,0,*64
1513642073.65,49643,6.56,73122.0,-16.81,-47.71,-47.65,0,*67
1513642074.92,49644,6.56,73120.0,-16.81,-47.57,-47.37,0,*63
1513642076.15,49645,6.56,73116.8,-16.79,-47.31,-47.31,0,*63
1513642077.36,49646,6.56,73118.5,-16.79,-47.17,-47.17,0,*60
1513642078.62,49647,6.56,73116.0,-16.77,-47.37,-47.57,0,*69
1513642079.9,49648,6.56,73118.0,-16.79,-47.79,-47.79,0,*6E
1513642081.19,49649,6.56,73118.8,-16.77,-47.79,-47.79,0,*61
1513642082.47,49650,6.56,73118.0,-16.77,-47.85,-47.79,0,*6A
1513642083.71,49651,6.56,73122.8,-16.79,-47.79,-47.65,0,*6B
1513642084.92,49652,6.56,73116.0,-16.79,-47.85,-47.65,0,*6B
1513642086.14,49653,6.56,73118.3,-16.79,-47.85,-47.65,0,*6A
1513642087.41,49654,6.56,73118.3,-16.77,-47.99,-47.79,0,*63
1513642088.68,49655,6.56,73118.8,-16.77,-47.99,-47.79,0,*62
1513642089.95,49656,6.56,73122.0,-16.77,-47.85,-47.79,0,*6C
1513642091.22,49657,6.56,73120.0,-16.77,-47.85,-47.79,0,*6D
1513642092.49,49658,6.56,73120.8,-16.77,-47.79,-47.65,0,*6C
1513642093.76,49659,6.56,73122.0,-16.77,-47.85,-47.79,0,*63
1513642095.01,49660,6.56,73118.8,-16.77,-47.99,-47.99,0,*6A
1513642096.27,49661,6.56,73120.3,-16.75,-47.79,-47.93,0,*6D
1513642097.52,49662,6.56,73116.0,-16.77,-48.21,-48.21,0,*68
1513642098.79,49663,6.56,73118.8,-16.77,-48.21,-48.27,0,*6F
1513642100.04,49664,6.56,73116.3,-16.77,-48.07,-48.07,0,*6E